Location: Newark
(30.1000°N, 109.4667°E)
Time: 13:56:40
(UTC+00:00)

Vanguard 2 Rocket - Pass Details

Date: 23 February 2020
Orbit: 554 x 3326 km, 32.9° (Epoch: 06 April)

Event Time Altitude Azimuth Distance (km) Brightness Sun altitude
Rises 13:00:50 0° 257° (WSW) 7,287 12.5 -32.0°
Reaches altitude 10° 13:05:59 10° 258° (WSW) 6,151 11.8 -33.1°
Maximum altitude 13:24:50 85° 348° (NNW) 2,413 8.8 -37.1°
Enters shadow 13:27:16 68° 65° (ENE) 2,377 8.6 -37.6°
